M I D A S
Marine Information and Data Acquisition System
Tripno 1326 of the Zeeleeuw from 2007-08-29 06:33:39 to 2007-08-29 13:56:30
Back to CruiseResearch ActivitiesStationsMapUnderway DataData graphs

EquipmentUnitsComments
TimeDGPSUTC
LatitudeDGPSDM.mWGS84
LongitudeDGPSDM.mWGS84
SpeedMeteo Stationm/sRelative wind speed
DirectionMeteo StationdegRelative wind direction
TemperatureMeteo Stationdeg CelciusAir temperature
PressureMeteo StationPaAtmospheric pressure
HumidityMeteo Station%Relative humidity
Missing or incorrect values are displayed as -999
Metereological data collected by the RV Zeeleeuw from 2007-08-29 06:37:41 to 2007-08-29 14:07:31
Time Latitude Longitude Speed Direction Temperature Pressure Humidity
2007-08-29 06:38 51°13.619 2°56.03 -999 -999 -999 -999 -999
2007-08-29 06:39 51°13.657 2°55.909 -999 -999 -999 -999 -999
2007-08-29 06:40 51°13.677 2°55.814 -999 -999 -999 -999 -999
2007-08-29 06:41 51°13.678 2°55.752 -999 -999 -999 -999 -999
2007-08-29 06:42 51°13.679 2°55.725 -999 -999 -999 -999 -999
2007-08-29 06:43 51°13.705 2°55.73 -999 -999 -999 -999 -999
2007-08-29 06:44 51°13.793 2°55.662 -999 -999 -999 -999 -999
2007-08-29 06:45 51°13.918 2°55.57 -999 -999 -999 -999 -999
2007-08-29 06:46 51°14.05 2°55.479 -999 -999 -999 -999 -999
2007-08-29 06:47 51°14.174 2°55.376 -999 -999 -999 -999 -999
2007-08-29 06:48 51°14.284 2°55.219 -999 -999 -999 -999 -999
2007-08-29 06:49 51°14.395 2°54.992 -999 -999 -999 -999 -999
2007-08-29 06:50 51°14.55 2°54.777 -999 -999 -999 -999 -999
2007-08-29 06:51 51°14.72 2°54.599 -999 -999 -999 -999 -999
2007-08-29 06:52 51°14.891 2°54.423 -999 -999 -999 -999 -999
2007-08-29 06:53 51°15.049 2°54.228 -999 -999 -999 -999 -999
2007-08-29 06:54 51°15.221 2°54.067 -999 -999 -999 -999 -999
2007-08-29 06:55 51°15.389 2°53.884 -999 -999 -999 -999 -999
2007-08-29 06:56 51°15.567 2°53.729 -999 -999 -999 -999 -999
2007-08-29 06:57 51°15.743 2°53.571 -999 -999 -999 -999 -999
2007-08-29 06:58 51°15.92 2°53.415 -999 -999 -999 -999 -999
2007-08-29 06:59 51°16.096 2°53.252 -999 -999 -999 -999 -999
2007-08-29 07:00 51°16.273 2°53.096 -999 -999 -999 -999 -999
2007-08-29 07:01 51°16.449 2°52.935 -999 -999 -999 -999 -999
2007-08-29 07:02 51°16.626 2°52.791 -999 -999 -999 -999 -999
2007-08-29 07:03 51°16.801 2°52.648 -999 -999 -999 -999 -999
2007-08-29 07:04 51°16.974 2°52.505 -999 -999 -999 -999 -999
2007-08-29 07:05 51°17.148 2°52.362 -999 -999 -999 -999 -999
2007-08-29 07:06 51°17.319 2°52.204 -999 -999 -999 -999 -999
2007-08-29 07:07 51°17.485 2°52.042 -999 -999 -999 -999 -999
2007-08-29 07:08 51°17.582 2°51.749 -999 -999 -999 -999 -999
2007-08-29 07:09 51°17.676 2°51.453 -999 -999 -999 -999 -999
2007-08-29 07:10 51°17.762 2°51.147 -999 -999 -999 -999 -999
2007-08-29 07:11 51°17.854 2°50.84 -999 -999 -999 -999 -999
2007-08-29 07:12 51°17.941 2°50.528 -999 -999 -999 -999 -999
2007-08-29 07:13 51°18.029 2°50.206 -999 -999 -999 -999 -999
2007-08-29 07:14 51°18.118 2°49.879 -999 -999 -999 -999 -999
2007-08-29 07:15 51°18.211 2°49.553 -999 -999 -999 -999 -999
2007-08-29 07:16 51°18.302 2°49.228 -999 -999 -999 -999 -999
2007-08-29 07:17 51°18.398 2°48.908 -999 -999 -999 -999 -999
2007-08-29 07:18 51°18.495 2°48.594 -999 -999 -999 -999 -999
2007-08-29 07:19 51°18.59 2°48.275 -999 -999 -999 -999 -999
2007-08-29 07:20 51°18.684 2°47.954 -999 -999 -999 -999 -999
2007-08-29 07:21 51°18.775 2°47.63 -999 -999 -999 -999 -999
2007-08-29 07:22 51°18.862 2°47.303 -999 -999 -999 -999 -999
2007-08-29 07:23 51°18.951 2°46.976 -999 -999 -999 -999 -999
2007-08-29 07:24 51°19.04 2°46.636 -999 -999 -999 -999 -999
2007-08-29 07:25 51°19.129 2°46.299 -999 -999 -999 -999 -999
2007-08-29 07:26 51°19.217 2°45.96 -999 -999 -999 -999 -999
2007-08-29 07:27 51°19.306 2°45.626 -999 -999 -999 -999 -999
2007-08-29 07:28 51°19.395 2°45.3 -999 -999 -999 -999 -999
2007-08-29 07:29 51°19.489 2°44.962 -999 -999 -999 -999 -999
2007-08-29 07:30 51°19.579 2°44.637 -999 -999 -999 -999 -999
2007-08-29 07:31 51°19.664 2°44.301 -999 -999 -999 -999 -999
2007-08-29 07:32 51°19.75 2°43.963 -999 -999 -999 -999 -999
2007-08-29 07:33 51°19.837 2°43.624 -999 -999 -999 -999 -999
2007-08-29 07:34 51°19.925 2°43.279 -999 -999 -999 -999 -999
2007-08-29 07:35 51°20.01 2°42.937 -999 -999 -999 -999 -999
2007-08-29 07:36 51°20.094 2°42.591 -999 -999 -999 -999 -999
2007-08-29 07:37 51°20.179 2°42.246 -999 -999 -999 -999 -999
2007-08-29 07:38 51°20.263 2°41.901 -999 -999 -999 -999 -999
2007-08-29 07:39 51°20.351 2°41.563 -999 -999 -999 -999 -999
2007-08-29 07:40 51°20.44 2°41.229 -999 -999 -999 -999 -999
2007-08-29 07:41 51°20.501 2°40.886 -999 -999 -999 -999 -999
2007-08-29 07:42 51°20.55 2°40.526 -999 -999 -999 -999 -999
2007-08-29 07:43 51°20.591 2°40.157 -999 -999 -999 -999 -999
2007-08-29 07:44 51°20.63 2°39.794 -999 -999 -999 -999 -999
2007-08-29 07:45 51°20.642 2°39.431 -999 -999 -999 -999 -999
2007-08-29 07:46 51°20.662 2°39.062 -999 -999 -999 -999 -999
2007-08-29 07:47 51°20.68 2°38.691 -999 -999 -999 -999 -999
2007-08-29 07:48 51°20.703 2°38.322 -999 -999 -999 -999 -999
2007-08-29 07:49 51°20.725 2°37.953 -999 -999 -999 -999 -999
2007-08-29 07:50 51°20.748 2°37.584 -999 -999 -999 -999 -999
2007-08-29 07:51 51°20.769 2°37.214 -999 -999 -999 -999 -999
2007-08-29 07:52 51°20.791 2°36.839 -999 -999 -999 -999 -999
2007-08-29 07:53 51°20.814 2°36.461 -999 -999 -999 -999 -999
2007-08-29 07:54 51°20.837 2°36.079 -999 -999 -999 -999 -999
2007-08-29 07:55 51°20.859 2°35.695 -999 -999 -999 -999 -999
2007-08-29 07:56 51°20.882 2°35.312 -999 -999 -999 -999 -999
2007-08-29 07:57 51°20.905 2°34.925 -999 -999 -999 -999 -999
2007-08-29 07:58 51°20.927 2°34.534 -999 -999 -999 -999 -999
2007-08-29 07:59 51°20.949 2°34.143 -999 -999 -999 -999 -999
2007-08-29 08:00 51°20.97 2°33.755 -999 -999 -999 -999 -999
2007-08-29 08:01 51°21.045 2°33.408 -999 -999 -999 -999 -999
2007-08-29 08:02 51°21.212 2°33.221 -999 -999 -999 -999 -999
2007-08-29 08:03 51°21.397 2°33.115 -999 -999 -999 -999 -999
2007-08-29 08:04 51°21.585 2°33.03 -999 -999 -999 -999 -999
2007-08-29 08:05 51°21.774 2°32.958 -999 -999 -999 -999 -999
2007-08-29 08:06 51°21.962 2°32.872 -999 -999 -999 -999 -999
2007-08-29 08:07 51°22.147 2°32.778 -999 -999 -999 -999 -999
2007-08-29 08:08 51°22.333 2°32.673 -999 -999 -999 -999 -999
2007-08-29 08:09 51°22.473 2°32.42 -999 -999 -999 -999 -999
2007-08-29 08:10 51°22.518 2°32.052 -999 -999 -999 -999 -999
2007-08-29 08:11 51°22.51 2°31.652 -999 -999 -999 -999 -999
2007-08-29 08:12 51°22.509 2°31.251 -999 -999 -999 -999 -999
2007-08-29 08:13 51°22.501 2°30.849 -999 -999 -999 -999 -999
2007-08-29 08:14 51°22.498 2°30.447 -999 -999 -999 -999 -999
2007-08-29 08:15 51°22.493 2°30.051 -999 -999 -999 -999 -999
2007-08-29 08:16 51°22.482 2°29.648 -999 -999 -999 -999 -999
2007-08-29 08:17 51°22.468 2°29.253 -999 -999 -999 -999 -999
2007-08-29 08:18 51°22.455 2°28.858 -999 -999 -999 -999 -999
2007-08-29 08:19 51°22.442 2°28.462 -999 -999 -999 -999 -999
2007-08-29 08:20 51°22.428 2°28.072 -999 -999 -999 -999 -999
2007-08-29 08:21 51°22.414 2°27.667 -999 -999 -999 -999 -999
2007-08-29 08:22 51°22.4 2°27.266 -999 -999 -999 -999 -999
2007-08-29 08:23 51°22.39 2°26.876 -999 -999 -999 -999 -999
2007-08-29 08:24 51°22.395 2°26.491 -999 -999 -999 -999 -999
2007-08-29 08:25 51°22.404 2°26.108 -999 -999 -999 -999 -999
2007-08-29 08:26 51°22.434 2°25.734 -999 -999 -999 -999 -999
2007-08-29 08:27 51°22.553 2°25.442 -999 -999 -999 -999 -999
2007-08-29 08:28 51°22.735 2°25.33 -999 -999 -999 -999 -999
2007-08-29 08:29 51°22.918 2°25.378 -999 -999 -999 -999 -999
2007-08-29 08:30 51°23.101 2°25.423 -999 -999 -999 -999 -999
2007-08-29 08:31 51°23.285 2°25.458 -999 -999 -999 -999 -999
2007-08-29 08:32 51°23.47 2°25.489 -999 -999 -999 -999 -999
2007-08-29 08:33 51°23.655 2°25.515 -999 -999 -999 -999 -999
2007-08-29 08:34 51°23.84 2°25.544 -999 -999 -999 -999 -999
2007-08-29 08:35 51°24.024 2°25.577 -999 -999 -999 -999 -999
2007-08-29 08:36 51°24.205 2°25.612 -999 -999 -999 -999 -999
2007-08-29 08:37 51°24.384 2°25.655 -999 -999 -999 -999 -999
2007-08-29 08:38 51°24.561 2°25.696 -999 -999 -999 -999 -999
2007-08-29 08:39 51°24.736 2°25.736 -999 -999 -999 -999 -999
2007-08-29 08:40 51°24.911 2°25.777 -999 -999 -999 -999 -999
2007-08-29 08:41 51°25.086 2°25.818 -999 -999 -999 -999 -999
2007-08-29 08:42 51°25.26 2°25.864 -999 -999 -999 -999 -999
2007-08-29 08:43 51°25.433 2°25.908 -999 -999 -999 -999 -999
2007-08-29 08:44 51°25.605 2°25.954 -999 -999 -999 -999 -999
2007-08-29 08:45 51°25.779 2°26.002 -999 -999 -999 -999 -999
2007-08-29 08:46 51°25.952 2°26.053 -999 -999 -999 -999 -999
2007-08-29 08:47 51°26.129 2°26.104 -999 -999 -999 -999 -999
2007-08-29 08:48 51°26.306 2°26.154 -999 -999 -999 -999 -999
2007-08-29 08:49 51°26.479 2°26.204 10.8 330 16.2 -999 55
2007-08-29 08:50 51°26.654 2°26.254 9.3 329 16.3 101980 56
2007-08-29 08:51 51°26.832 2°26.305 10.6 334 16.2 101980 54
2007-08-29 08:52 51°27.008 2°26.354 10.8 332 16.2 101980 54
2007-08-29 08:53 51°27.187 2°26.411 9.2 331 16.3 101980 55
2007-08-29 08:54 51°27.37 2°26.468 10 334 16.3 101980 54
2007-08-29 08:55 51°27.549 2°26.526 9.8 332 16.3 101970 54
2007-08-29 08:56 51°27.727 2°26.585 10.5 332 16.3 101960 53
2007-08-29 08:57 51°27.906 2°26.648 9.9 330 16.2 101980 51
2007-08-29 08:58 51°28.081 2°26.709 10.2 329 16.3 101980 53
2007-08-29 08:59 51°28.266 2°26.775 11.5 330 16.3 101960 55
2007-08-29 09:00 51°28.441 2°26.836 9.6 333 16.3 101980 53
2007-08-29 09:01 51°28.619 2°26.745 8.8 338 16.3 101980 54
2007-08-29 09:02 51°28.738 2°26.46 8.5 339 16.3 101990 55
2007-08-29 09:03 51°28.849 2°26.177 9 344 16.2 101980 54
2007-08-29 09:04 51°28.965 2°25.892 8.1 342 16.1 101980 54
2007-08-29 09:05 51°29.084 2°25.612 8.7 345 16.1 101990 53
2007-08-29 09:06 51°29.157 2°25.287 6.6 351 16 101990 54
2007-08-29 09:07 51°29.229 2°24.96 7.2 345 16 101980 55
2007-08-29 09:08 51°29.303 2°24.635 7.1 345 16 101980 53
2007-08-29 09:09 51°29.375 2°24.31 6.4 346 15.9 101990 55
2007-08-29 09:10 51°29.503 2°24.068 10 335 16 101990 57
2007-08-29 09:11 51°29.683 2°24.089 10.2 328 16 101970 55
2007-08-29 09:12 51°29.836 2°24.217 9.5 329 16.1 101980 55
2007-08-29 09:13 51°30.001 2°24.33 10 326 16.2 101970 55
2007-08-29 09:14 51°30.16 2°24.435 10.1 327 16.2 101980 55
2007-08-29 09:15 51°30.316 2°24.574 10 330 16.2 101970 57
2007-08-29 09:16 51°30.471 2°24.702 9.7 329 16.2 101980 54
2007-08-29 09:17 51°30.627 2°24.835 10.4 333 16.3 101980 57
2007-08-29 09:18 51°30.785 2°24.97 9.5 330 16.2 101990 55
2007-08-29 09:19 51°30.939 2°25.108 9 326 16.2 101980 55
2007-08-29 09:20 51°31.094 2°25.252 9.2 332 16.3 101980 55
2007-08-29 09:21 51°31.253 2°25.391 8.7 330 16.3 101990 56
2007-08-29 09:22 51°31.407 2°25.53 9.7 331 16.3 101980 56
2007-08-29 09:23 51°31.567 2°25.673 8.5 329 16.3 101990 54
2007-08-29 09:24 51°31.726 2°25.813 10.5 330 16.3 101990 55
2007-08-29 09:25 51°31.885 2°25.957 10.2 332 16.3 101990 54
2007-08-29 09:26 51°32.041 2°26.102 8.4 330 16.3 101980 55
2007-08-29 09:27 51°32.202 2°26.253 10.5 329 16.3 101990 56
2007-08-29 09:28 51°32.355 2°26.395 9.8 335 16.3 101990 53
2007-08-29 09:29 51°32.518 2°26.541 9.2 333 16.2 101990 54
2007-08-29 09:30 51°32.67 2°26.683 9.2 329 16.2 101980 54
2007-08-29 09:31 51°32.832 2°26.832 9.7 327 16.3 101990 55
2007-08-29 09:32 51°32.992 2°26.976 8.9 328 16.3 101980 55
2007-08-29 09:33 51°33.154 2°27.123 9.8 329 16.3 101980 54
2007-08-29 09:34 51°33.309 2°27.263 8.1 326 16.3 101990 56
2007-08-29 09:35 51°33.471 2°27.408 10.2 327 16.3 101980 55
2007-08-29 09:36 51°33.635 2°27.555 9.7 325 16.3 101980 55
2007-08-29 09:37 51°33.79 2°27.696 8.9 326 16.3 101970 55
2007-08-29 09:38 51°33.949 2°27.847 10.1 325 16.3 101990 56
2007-08-29 09:39 51°34.098 2°27.999 10.6 329 16.3 101980 57
2007-08-29 09:40 51°34.253 2°28.159 9.8 332 16.3 101990 54
2007-08-29 09:41 51°34.404 2°28.315 10.4 328 16.3 101980 55
2007-08-29 09:42 51°34.556 2°28.472 11.4 328 16.3 101990 55
2007-08-29 09:43 51°34.708 2°28.63 9.5 329 16.3 101980 54
2007-08-29 09:44 51°34.861 2°28.785 8.5 328 16.2 101990 55
2007-08-29 09:45 51°35.012 2°28.943 9.6 325 16.3 101980 54
2007-08-29 09:46 51°35.162 2°29.099 9.1 332 16.3 101980 55
2007-08-29 09:47 51°35.316 2°29.257 9.1 329 16.3 101990 54
2007-08-29 09:48 51°35.468 2°29.41 8.7 324 16.3 101990 55
2007-08-29 09:49 51°35.628 2°29.566 8.9 329 16.3 101980 55
2007-08-29 09:50 51°35.777 2°29.709 9 326 16.3 101980 54
2007-08-29 09:51 51°35.931 2°29.861 9.1 330 16.3 101990 54
2007-08-29 09:52 51°36.087 2°30.017 10 329 16.3 101990 54
2007-08-29 09:53 51°36.236 2°30.16 9.4 331 16.3 102000 54
2007-08-29 09:54 51°36.39 2°30.312 11 332 16.3 102000 54
2007-08-29 09:55 51°36.545 2°30.463 8.4 285 16.3 101990 53
2007-08-29 09:56 51°36.693 2°30.611 8.3 327 16.3 102010 53
2007-08-29 09:57 51°36.846 2°30.768 9.6 329 16.3 101990 54
2007-08-29 09:58 51°36.996 2°30.918 8.8 330 16.3 101990 54
2007-08-29 09:59 51°37.148 2°31.073 10.2 326 16.3 102000 54
2007-08-29 10:00 51°37.301 2°31.229 9.2 327 16.3 102000 54
2007-08-29 10:01 51°37.45 2°31.381 8.7 328 16.3 101990 55
2007-08-29 10:02 51°37.605 2°31.539 9.4 325 16.2 101990 54
2007-08-29 10:03 51°37.758 2°31.695 9.6 332 16.2 102000 53
2007-08-29 10:04 51°37.909 2°31.852 9.4 331 16.2 101990 53
2007-08-29 10:05 51°38.062 2°32.011 10.8 329 16.3 101990 52
2007-08-29 10:06 51°38.215 2°32.171 8.3 327 16.3 101990 54
2007-08-29 10:07 51°38.368 2°32.332 8.4 327 16.3 102000 53
2007-08-29 10:08 51°38.523 2°32.492 10.1 328 16.3 101970 53
2007-08-29 10:09 51°38.677 2°32.653 9.3 283 16.3 101980 53
2007-08-29 10:10 51°38.831 2°32.813 8.5 331 16.3 101980 53
2007-08-29 10:11 51°38.986 2°32.968 10.1 286 16.2 101980 53
2007-08-29 10:12 51°39.145 2°33.118 8.5 304 16.2 101980 53
2007-08-29 10:13 51°39.304 2°33.269 8.8 328 16.3 101990 54
2007-08-29 10:14 51°39.463 2°33.421 11.3 330 16.3 101990 55
2007-08-29 10:15 51°39.621 2°33.573 9.2 329 16.3 102000 53
2007-08-29 10:16 51°39.78 2°33.729 10 329 16.2 101990 53
2007-08-29 10:17 51°39.939 2°33.883 9.2 328 16.3 101990 53
2007-08-29 10:18 51°40.099 2°34.038 8.3 329 16.3 102000 53
2007-08-29 10:19 51°40.26 2°34.194 8.6 327 16.3 102000 53
2007-08-29 10:20 51°40.419 2°34.349 9.9 281 16.3 101990 54
2007-08-29 10:21 51°40.58 2°34.504 10.1 330 16.3 102000 53
2007-08-29 10:22 51°40.738 2°34.66 8.5 332 16.3 101990 52
2007-08-29 10:23 51°40.901 2°34.805 8.9 338 16.3 101990 53
2007-08-29 10:24 51°41.083 2°34.863 8.5 336 16.3 102000 52
2007-08-29 10:25 51°41.247 2°34.995 9 334 16.3 102000 51
2007-08-29 10:26 51°41.402 2°35.159 8.6 332 16.3 101990 51
2007-08-29 10:27 51°41.517 2°35.397 9.9 326 16.3 101980 53
2007-08-29 10:28 51°41.603 2°35.672 8.2 326 16.3 101980 53
2007-08-29 10:29 51°41.688 2°35.947 8 326 16.3 101980 52
2007-08-29 10:30 51°41.775 2°36.217 8.4 329 16.3 102000 52
2007-08-29 10:31 51°41.829 2°36.514 9 327 16.3 101990 54
2007-08-29 10:32 51°41.873 2°36.821 8.4 321 16.3 101990 53
2007-08-29 10:33 51°41.893 2°37.138 8.5 322 16.3 101990 52
2007-08-29 10:34 51°41.896 2°37.459 7 285 16.4 101990 52
2007-08-29 10:35 51°41.717 2°37.602 4 326 16.4 102000 53
2007-08-29 10:36 51°41.522 2°37.406 4.4 285 16.5 102000 52
2007-08-29 10:37 51°41.332 2°37.185 4 340 16.4 102000 52
2007-08-29 10:38 51°41.106 2°37.122 5 281 16.4 102010 54
2007-08-29 10:39 51°40.908 2°37.275 7.7 306 16.5 102000 53
2007-08-29 10:40 51°40.794 2°37.563 8.6 318 16.6 101990 54
2007-08-29 10:41 51°40.695 2°37.864 6.6 307 16.6 101990 51
2007-08-29 10:42 51°40.594 2°38.167 7 321 16.7 102000 52
2007-08-29 10:43 51°40.496 2°38.47 8 328 16.7 102000 51
2007-08-29 10:44 51°40.4 2°38.773 6.7 322 16.6 102010 49
2007-08-29 10:45 51°40.303 2°39.076 7.9 315 16.6 102000 51
2007-08-29 10:46 51°40.211 2°39.379 7.6 323 16.7 102000 53
2007-08-29 10:47 51°40.118 2°39.684 8.7 321 16.6 102000 51
2007-08-29 10:48 51°40.026 2°39.992 7.9 320 16.6 102000 52
2007-08-29 10:49 51°39.927 2°40.294 7.5 318 16.7 102000 51
2007-08-29 10:50 51°39.827 2°40.596 7.1 32 16.6 102000 52
2007-08-29 10:51 51°39.726 2°40.897 7.2 325 16.6 102000 52
2007-08-29 10:52 51°39.622 2°41.196 8.7 321 16.6 102000 50
2007-08-29 10:53 51°39.521 2°41.496 8.1 320 16.7 101990 50
2007-08-29 10:54 51°39.418 2°41.798 7.9 322 16.7 101990 49
2007-08-29 10:55 51°39.264 2°42.046 5.3 325 16.6 102010 49
2007-08-29 10:56 51°39.061 2°42.186 3.9 321 16.6 102000 51
2007-08-29 10:57 51°38.833 2°42.174 4.6 325 16.7 102000 51
2007-08-29 10:58 51°38.603 2°42.14 5.7 328 16.7 102010 52
2007-08-29 10:59 51°38.373 2°42.124 5.5 322 16.7 102000 50
2007-08-29 11:00 51°38.144 2°42.111 4.3 328 16.7 102010 50
2007-08-29 11:01 51°37.914 2°42.1 4.6 326 16.6 102010 50
2007-08-29 11:02 51°37.682 2°42.09 5.2 326 16.6 102010 51
2007-08-29 11:03 51°37.473 2°41.972 4.3 335 16.6 102010 51
2007-08-29 11:04 51°37.384 2°41.658 5 345 16.6 102000 53
2007-08-29 11:05 51°37.383 2°41.314 5.9 348 16.5 102000 51
2007-08-29 11:06 51°37.385 2°40.968 5.6 344 16.3 101990 51
2007-08-29 11:07 51°37.39 2°40.625 5.4 345 16.2 102000 53
2007-08-29 11:08 51°37.396 2°40.28 6.8 344 16.1 102000 53
2007-08-29 11:09 51°37.405 2°39.936 6.5 339 16.1 101980 53
2007-08-29 11:10 51°37.412 2°39.591 6.4 341 16.2 101990 51
2007-08-29 11:11 51°37.42 2°39.245 5.4 336 16.2 101990 51
2007-08-29 11:12 51°37.428 2°38.899 5.4 344 16.2 101980 51
2007-08-29 11:13 51°37.436 2°38.555 5.5 339 16.2 101980 51
2007-08-29 11:14 51°37.446 2°38.211 7.1 347 16.2 101990 51
2007-08-29 11:15 51°37.457 2°37.87 4.9 341 16.2 101990 52
2007-08-29 11:16 51°37.468 2°37.529 5.2 338 16.2 101990 52
2007-08-29 11:17 51°37.48 2°37.187 6 343 16.2 101990 51
2007-08-29 11:18 51°37.491 2°36.845 8.9 346 16.2 101990 52
2007-08-29 11:19 51°37.501 2°36.503 7.2 345 16.2 101990 52
2007-08-29 11:20 51°37.511 2°36.158 6.4 348 16.1 101990 53
2007-08-29 11:21 51°37.521 2°35.812 6 340 16 101990 51
2007-08-29 11:22 51°37.533 2°35.47 6.4 348 16.1 102000 52
2007-08-29 11:23 51°37.548 2°35.13 7.5 346 16.1 102010 54
2007-08-29 11:24 51°37.564 2°34.794 6.6 348 16 102000 51
2007-08-29 11:25 51°37.536 2°34.475 4.6 350 16.1 102000 55
2007-08-29 11:26 51°37.422 2°34.194 5.3 352 16 102010 56
2007-08-29 11:27 51°37.284 2°33.95 3.9 343 16 102000 54
2007-08-29 11:28 51°37.082 2°33.842 3.7 335 15.9 102010 53
2007-08-29 11:29 51°36.88 2°33.727 2.9 331 16 102020 53
2007-08-29 11:30 51°36.676 2°33.618 2.5 344 16.1 102020 54
2007-08-29 11:31 51°36.473 2°33.505 3.3 337 16.2 102010 55
2007-08-29 11:32 51°36.271 2°33.389 3.7 338 16.4 102010 54
2007-08-29 11:33 51°36.071 2°33.267 3.4 339 16.4 102010 52
2007-08-29 11:34 51°35.87 2°33.148 4.2 335 16.4 102010 52
2007-08-29 11:35 51°35.67 2°33.029 4.1 325 16.4 102010 53
2007-08-29 11:36 51°35.471 2°32.91 4.2 326 16.5 102010 53
2007-08-29 11:37 51°35.271 2°32.791 3.9 324 16.6 102010 52
2007-08-29 11:38 51°35.071 2°32.672 3.7 327 16.7 102010 50
2007-08-29 11:39 51°34.87 2°32.559 3.6 320 16.7 102010 51
2007-08-29 11:40 51°34.665 2°32.468 3.6 324 16.7 102010 50
2007-08-29 11:41 51°34.46 2°32.378 2.9 324 16.7 102010 51
2007-08-29 11:42 51°34.249 2°32.4 4.1 38 16.7 102010 51
2007-08-29 11:43 51°34.034 2°32.389 3.2 325 16.8 102010 52
2007-08-29 11:44 51°33.822 2°32.354 4 317 16.9 102020 50
2007-08-29 11:45 51°33.611 2°32.321 3.1 329 17 102020 52
2007-08-29 11:46 51°33.4 2°32.291 3.1 330 17 102020 53
2007-08-29 11:47 51°33.192 2°32.265 4.6 325 17.1 102020 52
2007-08-29 11:48 51°32.98 2°32.234 4.4 325 17.1 102010 52
2007-08-29 11:49 51°32.772 2°32.201 3.8 331 17.1 102020 49
2007-08-29 11:50 51°32.564 2°32.175 3 321 17 102020 50
2007-08-29 11:51 51°32.357 2°32.148 2.5 324 17 102020 49
2007-08-29 11:52 51°32.148 2°32.127 3.9 322 17.1 102020 52
2007-08-29 11:53 51°31.951 2°32.159 3.8 234 17.1 102020 51
2007-08-29 11:54 51°31.826 2°32.248 4.7 242 17.2 102020 51
2007-08-29 11:55 51°31.734 2°32.326 2.8 255 17.2 102020 51
2007-08-29 11:56 51°31.637 2°32.403 2.6 34 17.3 102020 50
2007-08-29 11:57 51°31.46 2°32.478 4.1 37 17.4 102020 49
2007-08-29 11:58 51°31.261 2°32.552 3.4 32 17.3 102020 48
2007-08-29 11:59 51°31.06 2°32.63 4.2 316 17.2 102020 50
2007-08-29 12:00 51°30.86 2°32.703 3.7 319 17.3 102020 52
2007-08-29 12:01 51°30.66 2°32.78 3.4 38 17.3 102020 51
2007-08-29 12:02 51°30.463 2°32.857 4.4 315 17.2 102020 52
2007-08-29 12:03 51°30.264 2°32.94 4.6 37 17.3 102020 51
2007-08-29 12:04 51°30.064 2°33.024 4.5 37 17.2 102010 50
2007-08-29 12:05 51°29.876 2°33.165 7.2 38 17.1 102010 50
2007-08-29 12:06 51°29.784 2°33.483 9.4 41 17 102000 52
2007-08-29 12:07 51°29.755 2°33.857 7.2 35 16.9 101990 51
2007-08-29 12:08 51°29.732 2°34.222 8.6 318 16.8 101990 53
2007-08-29 12:09 51°29.723 2°34.588 10.1 315 16.8 101980 52
2007-08-29 12:10 51°29.709 2°34.947 7.8 33 16.8 101980 51
2007-08-29 12:11 51°29.702 2°35.308 9 316 16.7 101980 51
2007-08-29 12:12 51°29.695 2°35.66 8.3 320 16.6 101980 53
2007-08-29 12:13 51°29.685 2°36.019 9 318 16.7 101970 53
2007-08-29 12:14 51°29.671 2°36.373 9.4 316 16.7 101980 52
2007-08-29 12:15 51°29.659 2°36.739 8.7 317 16.6 101970 51
2007-08-29 12:16 51°29.646 2°37.098 9 318 16.6 101980 51
2007-08-29 12:17 51°29.585 2°37.438 8.1 32 16.7 101990 54
2007-08-29 12:18 51°29.435 2°37.682 5.4 34 16.6 101990 52
2007-08-29 12:19 51°29.258 2°37.853 4 315 16.6 101990 52
2007-08-29 12:20 51°29.066 2°37.978 4 38 16.6 101990 52
2007-08-29 12:21 51°28.875 2°38.106 4 40 16.7 101990 53
2007-08-29 12:22 51°28.688 2°38.229 3.9 235 16.8 101990 55
2007-08-29 12:23 51°28.495 2°38.358 4.9 39 16.9 101990 54
2007-08-29 12:24 51°28.304 2°38.485 5 232 16.9 101980 52
2007-08-29 12:25 51°28.116 2°38.616 5.2 234 16.9 101990 51
2007-08-29 12:26 51°27.928 2°38.746 4.7 236 16.9 101980 53
2007-08-29 12:27 51°27.738 2°38.858 3.8 33 16.8 101990 52
2007-08-29 12:28 51°27.546 2°38.963 3.7 230 16.9 101990 55
2007-08-29 12:29 51°27.351 2°39.069 4 31 17 101990 54
2007-08-29 12:30 51°27.161 2°39.158 4.5 33 17 101980 53
2007-08-29 12:31 51°26.966 2°39.25 4.3 318 17 101980 53
2007-08-29 12:32 51°26.772 2°39.339 4.9 37 17 101990 54
2007-08-29 12:33 51°26.577 2°39.42 4.4 317 16.9 101980 52
2007-08-29 12:34 51°26.384 2°39.507 5.7 232 16.9 101980 52
2007-08-29 12:35 51°26.19 2°39.593 3.9 319 17 101980 53
2007-08-29 12:36 51°25.997 2°39.68 3.5 33 17 101980 52
2007-08-29 12:37 51°25.805 2°39.77 2.8 317 17 101990 52
2007-08-29 12:38 51°25.614 2°39.845 3.6 32 17.1 101990 52
2007-08-29 12:39 51°25.423 2°39.926 3 323 17.1 101980 51
2007-08-29 12:40 51°25.231 2°40.001 3.8 39 17.2 101980 54
2007-08-29 12:41 51°25.04 2°40.079 5.3 232 17.2 101980 52
2007-08-29 12:42 51°24.849 2°40.16 3.5 232 17.2 101980 52
2007-08-29 12:43 51°24.656 2°40.243 3 321 17.2 101980 51
2007-08-29 12:44 51°24.465 2°40.329 2.1 319 17.2 101990 51
2007-08-29 12:45 51°24.276 2°40.417 3.7 34 17.2 101990 51
2007-08-29 12:46 51°24.09 2°40.509 3.5 231 17.3 101980 53
2007-08-29 12:47 51°23.9 2°40.604 6.2 235 17.3 101980 52
2007-08-29 12:48 51°23.715 2°40.681 3.5 38 17.2 101980 52
2007-08-29 12:49 51°23.526 2°40.692 3.8 39 17.2 101980 52
2007-08-29 12:50 51°23.335 2°40.694 2.1 41 17.2 101980 50
2007-08-29 12:51 51°23.145 2°40.694 1.8 321 17.3 101980 51
2007-08-29 12:52 51°22.954 2°40.693 2.5 315 17.3 101970 52
2007-08-29 12:53 51°22.762 2°40.695 3 38 17.4 101980 51
2007-08-29 12:54 51°22.569 2°40.695 2.6 33 17.5 101980 51
2007-08-29 12:55 51°22.377 2°40.694 3.8 39 17.5 101980 51
2007-08-29 12:56 51°22.182 2°40.695 2.5 317 17.5 101970 50
2007-08-29 12:57 51°21.995 2°40.698 2.7 239 17.5 101970 51
2007-08-29 12:58 51°21.805 2°40.695 2.7 32 17.5 101980 52
2007-08-29 12:59 51°21.615 2°40.698 3.6 37 17.6 101970 52
2007-08-29 13:00 51°21.422 2°40.698 3.7 234 17.6 101970 51
2007-08-29 13:01 51°21.23 2°40.7 3.6 317 17.5 101970 51
2007-08-29 13:02 51°21.044 2°40.733 4.9 32 17.5 101970 50
2007-08-29 13:03 51°20.884 2°40.936 7.5 240 17.4 101960 51
2007-08-29 13:04 51°20.742 2°41.188 5.7 35 17.3 101960 51
2007-08-29 13:05 51°20.621 2°41.471 7.3 233 17.2 101960 52
2007-08-29 13:06 51°20.513 2°41.778 7.8 35 17.1 101960 53
2007-08-29 13:07 51°20.406 2°42.091 8.1 233 17 101950 51
2007-08-29 13:08 51°20.302 2°42.41 7.3 37 16.9 101950 53
2007-08-29 13:09 51°20.207 2°42.736 9.2 236 16.9 101950 53
2007-08-29 13:10 51°20.112 2°43.06 7.5 35 16.8 101940 51
2007-08-29 13:11 51°20.014 2°43.381 9 236 16.8 101940 52
2007-08-29 13:12 51°19.917 2°43.698 9.7 36 16.8 101930 52
2007-08-29 13:13 51°19.821 2°44.013 10.4 33 16.7 101940 52
2007-08-29 13:14 51°19.726 2°44.33 8.9 38 16.7 101940 54
2007-08-29 13:15 51°19.634 2°44.651 7.8 33 16.7 101950 52
2007-08-29 13:16 51°19.541 2°44.968 9.4 34 16.7 101940 53
2007-08-29 13:17 51°19.448 2°45.289 10.1 35 16.7 101940 54
2007-08-29 13:18 51°19.347 2°45.612 7.9 33 16.7 101950 53
2007-08-29 13:19 51°19.246 2°45.936 6.7 232 16.7 101940 55
2007-08-29 13:20 51°19.147 2°46.246 8.4 37 16.8 101940 57
2007-08-29 13:21 51°19.047 2°46.567 7.6 37 16.8 101940 54
2007-08-29 13:22 51°18.955 2°46.879 8.9 35 16.7 101940 54
2007-08-29 13:23 51°18.862 2°47.203 7.5 316 16.7 101930 54
2007-08-29 13:24 51°18.772 2°47.525 7.7 31 16.7 101940 52
2007-08-29 13:25 51°18.685 2°47.842 9.6 38 16.7 101940 54
2007-08-29 13:26 51°18.595 2°48.161 6.9 38 16.7 101940 54
2007-08-29 13:27 51°18.503 2°48.479 8.1 37 16.7 101940 52
2007-08-29 13:28 51°18.406 2°48.798 7.4 236 16.7 101930 54
2007-08-29 13:29 51°18.312 2°49.108 7.3 236 16.8 101940 57
2007-08-29 13:30 51°18.216 2°49.427 8.1 31 16.7 101920 56
2007-08-29 13:31 51°18.121 2°49.74 9.3 234 16.7 101920 54
2007-08-29 13:32 51°18.029 2°50.048 6.5 232 16.7 101930 54
2007-08-29 13:33 51°17.934 2°50.368 6.6 35 16.7 101930 56
2007-08-29 13:34 51°17.844 2°50.684 8.3 232 16.7 101920 55
2007-08-29 13:35 51°17.745 2°50.989 8.1 232 16.7 101920 54
2007-08-29 13:36 51°17.633 2°51.269 6.5 34 16.8 101920 57
2007-08-29 13:37 51°17.504 2°51.535 6.3 234 16.8 101920 57
2007-08-29 13:38 51°17.371 2°51.793 4.7 240 16.8 101920 59
2007-08-29 13:39 51°17.202 2°51.974 3.5 246 16.8 101930 57
2007-08-29 13:40 51°17.026 2°52.134 4.8 236 16.9 101920 58
2007-08-29 13:41 51°16.852 2°52.298 4.5 237 17 101920 57
2007-08-29 13:42 51°16.676 2°52.466 5 244 17 101920 56
2007-08-29 13:43 51°16.495 2°52.582 5.4 239 17 101920 55
2007-08-29 13:44 51°16.318 2°52.742 6.1 32 17.1 101920 54
2007-08-29 13:45 51°16.145 2°52.917 6.8 238 17 101920 54
2007-08-29 13:46 51°15.975 2°53.108 4.4 236 17 101920 54
2007-08-29 13:47 51°15.805 2°53.296 6 31 17 101920 54
2007-08-29 13:48 51°15.632 2°53.476 4.9 36 17 101920 55
2007-08-29 13:49 51°15.447 2°53.611 3.7 240 17 101920 55
2007-08-29 13:50 51°15.274 2°53.782 5.7 34 17.1 101920 57
2007-08-29 13:51 51°15.106 2°53.969 7.5 234 17.1 101920 57
2007-08-29 13:52 51°14.94 2°54.154 6.7 33 17.1 101920 57
2007-08-29 13:53 51°14.775 2°54.352 7.5 36 16.9 101920 56
2007-08-29 13:54 51°14.621 2°54.58 8.1 31 16.9 101920 57
2007-08-29 13:55 51°14.471 2°54.811 8.1 243 16.8 101910 58
2007-08-29 13:56 51°14.356 2°55.061 7.1 35 16.9 101920 58
2007-08-29 13:57 51°14.256 2°55.266 5.6 34 16.9 101920 59
2007-08-29 13:58 51°14.153 2°55.398 3 248 16.9 101930 57
2007-08-29 13:59 51°14.058 2°55.467 3.1 268 16.9 101930 56
2007-08-29 14:00 51°13.98 2°55.522 2.5 259 17.1 101930 57
2007-08-29 14:01 51°13.859 2°55.609 2.9 260 17.2 101930 56
2007-08-29 14:02 51°13.755 2°55.712 4 251 17.2 101930 55
2007-08-29 14:03 51°13.698 2°55.821 2.3 265 17.2 101930 53
2007-08-29 14:04 51°13.653 2°55.925 5.1 247 17.2 101930 54
2007-08-29 14:05 51°13.62 2°56.027 5.5 249 17.3 101930 53
2007-08-29 14:06 51°13.606 2°56.091 4 266 17.3 101930 53